{"data":{"norad_id":65908,"epoch":"2026-09-20T07:20:22.085952Z","epoch_age_seconds":119841,"freshness":"FRESH","line1":"1 65908U 25224AC  26263.30581118  .00014271  00000+0  43243-3 0  9992","line2":"2 65908  53.1591 182.9199 0000894 116.1584 243.9511 15.34419184 54723","mean_motion":15.34419184,"eccentricity":8.94e-5,"inclination_deg":53.1591,"raan_deg":182.9199,"arg_perigee_deg":116.1584,"mean_anomaly_deg":243.9511,"bstar":0.00043243,"rev_number":5472,"period_min":93.846584754378,"perigee_km":462.03465589029,"apogee_km":463.25778793036,"semimajor_km":6840.7832219103,"source":"CELESTRAK","updated_at":"2026-09-21T09:00:35.761678Z"}}